Orbital Elements at Epoch 2459200.5 (2020-Dec-17.0) TDB
Reference: JPL 25 (heliocentric ecliptic J2000)
Element | Value | Uncertainty (1-sigma) | Units |
e | .287389632109868 | 1.0085e-07 | |
a | 2.548366691088072 | 1.4179e-08 | au |
q | 1.81599252525523 | 2.5864e-07 | au |
i | 7.598832217730241 | 4.6281e-06 | deg |
node | 41.92922422146858 | 3.9596e-05 | deg |
peri | 350.4947075886699 | 4.0995e-05 | deg |
M | 122.5059252581919 | 1.6373e-05 | deg |
tp | 2458694.854786210037 (2019-Jul-30.35478621) | 6.8136e-05 | TDB |
period | 1485.905898679904 4.07 | 1.2402e-05 3.395e-08 | d yr |
n | .2422764458501903 | 2.0221e-09 | deg/d |
Q | 3.280740856920915 | 1.8255e-08 | au |
|
| | Orbit Determination Parameters
Additional Information
|